Location: *
(38.9800°N, 16.0500°E)
Time: 09:06:12
(UTC+00:00)

Cosmos 2026 Rocket - Pass Details

Date: 07 April 2020
Orbit: 940 x 1000 km, 82.9° (Epoch: 29 May)

Event Time Altitude Azimuth Distance (km) Brightness Sun altitude
Rises 03:44:25 0° 195° (SSW) 3,621 6.7 -9.6°
Reaches altitude 10° 03:46:57 10° 199° (SSW) 2,672 6.0 -9.1°
Maximum altitude 03:52:58 61° 279° (W) 1,063 4.0 -8.0°
Drops below altitude 10° 03:58:59 10° 360° (N) 2,665 6.5 -6.9°
Sets 04:01:31 0° 4° (N) 3,612 7.2 -6.4°
